Year,Month,Day,Hour,Minute,Value (Times are PST for temperature in C)
2008,03,24,00,00,1.30
2008,03,24,00,01,1.30
2008,03,24,00,02,1.30
2008,03,24,00,03,1.30
2008,03,24,00,04,1.30
2008,03,24,00,05,1.30
2008,03,24,00,06,1.30
2008,03,24,00,07,1.30
2008,03,24,00,08,1.30
2008,03,24,00,09,1.30
2008,03,24,00,10,1.30
2008,03,24,00,11,1.30
2008,03,24,00,12,1.30
2008,03,24,00,13,1.30
2008,03,24,00,14,1.30
2008,03,24,00,16,1.30
2008,03,24,00,17,1.30
2008,03,24,00,18,1.30
2008,03,24,00,19,1.30
2008,03,24,00,20,1.30
2008,03,24,00,25,1.30
2008,03,24,00,26,1.30
2008,03,24,00,27,1.30
2008,03,24,00,28,1.30
2008,03,24,00,33,1.30
2008,03,24,00,37,1.30
2008,03,24,00,38,1.30
2008,03,24,00,40,1.30
2008,03,24,00,41,1.30
2008,03,24,00,42,1.30
2008,03,24,00,43,1.30
2008,03,24,00,46,1.30
2008,03,24,00,47,1.30
2008,03,24,00,48,1.30
2008,03,24,00,50,1.30
2008,03,24,00,51,1.30
2008,03,24,00,52,1.40
2008,03,24,00,53,1.40
2008,03,24,00,54,1.40
2008,03,24,00,55,1.40
2008,03,24,00,56,1.40
2008,03,24,00,57,1.40
2008,03,24,00,59,1.30
2008,03,24,01,01,1.30
2008,03,24,01,02,1.30
2008,03,24,01,29,0.70
2008,03,24,01,33,0.60
2008,03,24,01,45,0.80
2008,03,24,01,48,0.80
2008,03,24,01,50,0.80
2008,03,24,01,53,0.80
2008,03,24,02,02,0.80
2008,03,24,02,04,0.90
2008,03,24,02,16,0.90
2008,03,24,02,27,0.90
2008,03,24,02,28,0.90
2008,03,24,02,29,0.90
2008,03,24,07,22,-0.40
2008,03,24,10,43,3.80
2008,03,24,10,47,4.00
2008,03,24,10,49,4.00
2008,03,24,10,50,4.10
2008,03,24,10,51,4.10
2008,03,24,10,56,4.60
2008,03,24,10,57,4.60
2008,03,24,11,00,4.60
2008,03,24,11,01,4.60
2008,03,24,11,02,4.60
2008,03,24,11,03,4.50
2008,03,24,11,18,5.10
2008,03,24,11,22,4.90
2008,03,24,11,28,5.10
2008,03,24,11,30,5.30
2008,03,24,11,31,5.40
2008,03,24,11,33,5.40
2008,03,24,11,35,5.60
2008,03,24,11,36,5.70
2008,03,24,11,39,5.70
2008,03,24,11,44,6.30
2008,03,24,11,51,6.00
2008,03,24,11,52,6.00
2008,03,24,12,04,5.70
2008,03,24,12,06,5.70
2008,03,24,12,08,5.60
2008,03,24,12,13,5.50
2008,03,24,12,17,5.50
2008,03,24,12,18,5.50
2008,03,24,12,19,5.60
2008,03,24,12,20,5.60
2008,03,24,12,21,5.70
2008,03,24,12,22,5.70
2008,03,24,12,23,5.70
2008,03,24,12,24,5.70
2008,03,24,12,25,5.70
2008,03,24,12,26,5.70
2008,03,24,12,27,5.70
2008,03,24,12,28,5.70
2008,03,24,12,29,5.70
2008,03,24,12,30,5.70
2008,03,24,12,31,5.70
2008,03,24,12,32,5.70
2008,03,24,12,33,5.70
2008,03,24,12,34,5.70
2008,03,24,12,35,5.80
2008,03,24,12,36,5.80
2008,03,24,12,37,5.70
2008,03,24,12,40,5.70
2008,03,24,12,41,5.70
2008,03,24,12,42,5.70
2008,03,24,12,43,5.70
2008,03,24,12,44,5.70
2008,03,24,12,45,5.70
2008,03,24,12,46,5.70
2008,03,24,12,47,5.70
2008,03,24,12,48,5.70
2008,03,24,12,49,5.70
2008,03,24,12,50,5.70
2008,03,24,12,51,5.70
2008,03,24,12,52,5.70
2008,03,24,12,53,5.70
2008,03,24,12,54,5.70
2008,03,24,12,55,5.70
2008,03,24,12,56,5.70
2008,03,24,12,57,5.70
2008,03,24,12,58,5.80
2008,03,24,12,59,5.80
2008,03,24,13,00,5.80
2008,03,24,13,01,5.90
2008,03,24,13,02,6.00
2008,03,24,13,03,6.00
2008,03,24,13,04,6.20
2008,03,24,13,05,6.30
2008,03,24,13,06,6.30
2008,03,24,13,07,6.40
2008,03,24,13,08,6.40
2008,03,24,13,09,6.40
2008,03,24,13,10,6.40
2008,03,24,13,11,6.40
2008,03,24,13,12,6.40
2008,03,24,13,13,6.40
2008,03,24,13,14,6.40
2008,03,24,13,15,6.40
2008,03,24,13,16,6.50
2008,03,24,13,17,6.60
2008,03,24,13,18,6.60
2008,03,24,13,19,6.60
2008,03,24,13,20,6.40
2008,03,24,13,21,6.40
2008,03,24,13,22,6.40
2008,03,24,13,23,6.40
2008,03,24,13,24,6.40
2008,03,24,13,25,6.60
2008,03,24,13,26,6.60
2008,03,24,13,27,6.60
2008,03,24,13,28,6.70
2008,03,24,13,29,6.70
2008,03,24,13,30,6.60
2008,03,24,13,31,6.60
2008,03,24,13,32,6.60
2008,03,24,13,33,6.60
2008,03,24,13,34,6.60
2008,03,24,13,35,6.70
2008,03,24,13,36,6.80
2008,03,24,13,37,6.90
2008,03,24,13,38,7.00
2008,03,24,13,39,7.00
2008,03,24,13,40,7.10
2008,03,24,13,41,7.20
2008,03,24,13,42,7.10
2008,03,24,13,43,7.10
2008,03,24,13,44,7.00
2008,03,24,13,45,6.80
2008,03,24,13,46,6.80
2008,03,24,13,47,6.90
2008,03,24,13,48,6.90
2008,03,24,13,49,6.90
2008,03,24,13,50,6.80
2008,03,24,13,51,6.80
2008,03,24,13,52,6.70
2008,03,24,13,53,6.60
2008,03,24,13,54,6.60
2008,03,24,13,55,6.60
2008,03,24,13,56,6.60
2008,03,24,13,57,6.60
2008,03,24,13,58,6.60
2008,03,24,13,59,6.40
2008,03,24,14,00,6.40
2008,03,24,14,01,6.40
2008,03,24,14,02,6.40
2008,03,24,14,03,6.40
2008,03,24,14,04,6.60
2008,03,24,14,05,6.60
2008,03,24,14,06,6.70
2008,03,24,14,07,6.70
2008,03,24,14,08,6.80
2008,03,24,14,09,6.90
2008,03,24,14,10,7.00
2008,03,24,14,11,6.90
2008,03,24,14,12,6.90
2008,03,24,14,13,6.90
2008,03,24,14,14,6.90
2008,03,24,14,15,6.80
2008,03,24,14,16,6.80
2008,03,24,14,17,6.80
2008,03,24,14,18,6.80
2008,03,24,14,19,6.70
2008,03,24,14,20,6.60
2008,03,24,14,21,6.60
2008,03,24,14,22,6.40
2008,03,24,14,23,6.40
2008,03,24,14,24,6.40
2008,03,24,14,25,6.40
2008,03,24,14,26,6.40
2008,03,24,14,27,6.40
2008,03,24,14,28,6.40
2008,03,24,14,29,6.40
2008,03,24,14,30,6.40
2008,03,24,14,31,6.40
2008,03,24,14,32,6.50
2008,03,24,14,33,6.60
2008,03,24,14,34,6.60
2008,03,24,14,35,6.60
2008,03,24,14,36,6.60
2008,03,24,14,37,6.60
2008,03,24,14,38,6.60
2008,03,24,14,39,6.70
2008,03,24,14,40,6.70
2008,03,24,14,41,6.70
2008,03,24,14,42,6.70
2008,03,24,14,43,6.70
2008,03,24,14,44,6.70
2008,03,24,14,45,6.80
2008,03,24,14,46,6.80
2008,03,24,14,47,6.80
2008,03,24,14,48,6.80
2008,03,24,14,49,6.80
2008,03,24,14,50,6.80
2008,03,24,14,51,6.80
2008,03,24,14,52,6.80
2008,03,24,14,53,6.80
2008,03,24,14,54,6.80
2008,03,24,14,55,6.80
2008,03,24,14,56,6.80
2008,03,24,14,57,6.80
2008,03,24,14,58,6.80
2008,03,24,14,59,6.80
2008,03,24,15,00,6.80
2008,03,24,15,01,6.80
2008,03,24,15,02,6.90
2008,03,24,15,03,6.90
2008,03,24,15,04,6.90
2008,03,24,15,05,6.90
2008,03,24,15,06,6.80
2008,03,24,15,07,6.80
2008,03,24,15,08,6.70
2008,03,24,15,09,6.60
2008,03,24,15,10,6.60
2008,03,24,15,11,6.60
2008,03,24,15,12,6.60
2008,03,24,15,13,6.40
2008,03,24,15,14,6.40
2008,03,24,15,15,6.40
2008,03,24,15,16,6.40
2008,03,24,15,17,6.50
2008,03,24,15,18,6.60
2008,03,24,15,19,6.60
2008,03,24,15,20,6.70
2008,03,24,15,21,6.80
2008,03,24,15,22,6.80
2008,03,24,15,23,6.80
2008,03,24,15,24,6.80
2008,03,24,15,25,6.80
2008,03,24,15,26,6.80
2008,03,24,15,27,6.80
2008,03,24,15,28,6.80
2008,03,24,15,29,6.80
2008,03,24,15,30,6.90
2008,03,24,15,31,7.00
2008,03,24,15,32,7.10
2008,03,24,15,33,7.10
2008,03,24,15,34,7.20
2008,03,24,15,35,7.30
2008,03,24,15,36,7.30
2008,03,24,15,37,7.30
2008,03,24,15,38,7.30
2008,03,24,15,39,7.30
2008,03,24,15,40,7.30
2008,03,24,15,41,7.30
2008,03,24,15,42,7.30
2008,03,24,15,43,7.30
2008,03,24,15,44,7.30
2008,03,24,15,45,7.30
2008,03,24,15,46,7.30
2008,03,24,15,47,7.30
2008,03,24,15,48,7.20
2008,03,24,15,49,7.20
2008,03,24,15,50,7.20
2008,03,24,15,51,7.30
2008,03,24,15,52,7.30
2008,03,24,15,53,7.30
2008,03,24,15,54,7.30
2008,03,24,15,55,7.30
2008,03,24,15,56,7.40
2008,03,24,15,57,7.40
2008,03,24,15,58,7.40
2008,03,24,15,59,7.50
2008,03,24,16,00,7.50
2008,03,24,16,01,7.50
2008,03,24,16,02,7.50
2008,03,24,16,03,7.50
2008,03,24,16,04,7.40
2008,03,24,16,05,7.30
2008,03,24,16,06,7.30
2008,03,24,16,07,7.20
2008,03,24,16,08,7.20
2008,03,24,16,09,7.10
2008,03,24,16,10,7.10
2008,03,24,16,11,7.10
2008,03,24,16,12,7.00
2008,03,24,16,13,6.90
2008,03,24,16,15,6.90
2008,03,24,16,16,6.90
2008,03,24,16,17,6.90
2008,03,24,16,18,6.80
2008,03,24,16,19,6.80
2008,03,24,16,20,6.80
2008,03,24,16,21,6.80
2008,03,24,16,22,6.90
2008,03,24,16,24,6.90
2008,03,24,16,25,6.90
2008,03,24,16,26,6.90
2008,03,24,16,27,6.90
2008,03,24,16,28,6.80
2008,03,24,16,29,6.80
2008,03,24,16,30,6.80
2008,03,24,16,32,6.80
2008,03,24,16,39,6.60
2008,03,24,16,40,6.60
2008,03,24,16,41,6.60
2008,03,24,16,42,6.40
2008,03,24,16,43,6.40
2008,03,24,16,44,6.40
2008,03,24,16,45,6.40
2008,03,24,16,47,6.20
2008,03,24,16,48,6.20
2008,03,24,16,49,6.20
2008,03,24,16,50,6.20
2008,03,24,16,51,6.10
2008,03,24,16,52,6.10
2008,03,24,16,53,6.10
2008,03,24,16,54,6.10
2008,03,24,16,55,6.00
2008,03,24,16,56,6.00
2008,03,24,16,57,6.00
2008,03,24,16,58,6.00
2008,03,24,16,59,6.10
2008,03,24,17,00,6.10
2008,03,24,17,02,6.00
2008,03,24,17,03,6.00
2008,03,24,17,04,6.00
2008,03,24,17,05,5.90
2008,03,24,17,06,5.90
2008,03,24,17,07,5.90
2008,03,24,17,08,5.90
2008,03,24,17,09,5.80
2008,03,24,17,10,5.70
2008,03,24,17,11,5.70
2008,03,24,17,12,5.70
2008,03,24,17,13,5.70
2008,03,24,17,14,5.60
2008,03,24,17,15,5.60
2008,03,24,17,16,5.50
2008,03,24,17,17,5.50
2008,03,24,17,18,5.40
2008,03,24,17,19,5.40
2008,03,24,17,20,5.40
2008,03,24,17,21,5.40
2008,03,24,17,22,5.40
2008,03,24,17,23,5.40
2008,03,24,17,24,5.40
2008,03,24,17,25,5.40
2008,03,24,17,26,5.40
2008,03,24,17,27,5.40
2008,03,24,17,28,5.40
2008,03,24,17,29,5.40
2008,03,24,17,30,5.40
2008,03,24,17,31,5.40
2008,03,24,17,32,5.40
2008,03,24,17,33,5.40
2008,03,24,17,34,5.40
2008,03,24,17,35,5.40
2008,03,24,17,36,5.40
2008,03,24,17,37,5.50
2008,03,24,17,38,5.50
2008,03,24,17,39,5.40
2008,03,24,17,40,5.40
2008,03,24,17,41,5.40
2008,03,24,17,42,5.40
2008,03,24,17,43,5.30
2008,03,24,17,44,5.30
2008,03,24,17,45,5.30
2008,03,24,17,46,5.30
2008,03,24,17,47,5.30
2008,03,24,17,48,5.20
2008,03,24,17,49,5.20
2008,03,24,17,50,5.10
2008,03,24,17,51,5.10
2008,03,24,17,53,5.10
2008,03,24,17,54,5.00
2008,03,24,17,55,4.90
2008,03,24,17,56,4.90
2008,03,24,17,57,4.90
2008,03,24,17,58,4.90
2008,03,24,17,59,4.80
2008,03,24,18,00,4.80
2008,03,24,18,01,4.80
2008,03,24,18,02,4.80
2008,03,24,18,03,4.80
2008,03,24,18,04,4.80
2008,03,24,18,05,4.90
2008,03,24,18,06,4.90
2008,03,24,18,07,4.90
2008,03,24,18,08,4.90
2008,03,24,18,09,5.00
2008,03,24,18,10,5.10
2008,03,24,18,11,5.10
2008,03,24,18,12,5.10
2008,03,24,18,13,5.10
2008,03,24,18,14,5.10
2008,03,24,18,15,5.10
2008,03,24,18,16,5.10
2008,03,24,18,17,5.10
2008,03,24,18,18,5.10
2008,03,24,18,19,5.10
2008,03,24,18,20,5.10
2008,03,24,18,21,5.10
2008,03,24,18,22,5.10
2008,03,24,18,23,4.90
2008,03,24,18,24,4.90
2008,03,24,18,25,4.90
2008,03,24,18,26,4.90
2008,03,24,18,27,4.90
2008,03,24,18,28,4.90
2008,03,24,18,29,4.80
2008,03,24,18,30,4.80
2008,03,24,18,31,4.70
2008,03,24,18,32,4.70
2008,03,24,18,33,4.60
2008,03,24,18,34,4.60
2008,03,24,18,35,4.60
2008,03,24,18,36,4.60
2008,03,24,18,37,4.60
2008,03,24,18,38,4.50
2008,03,24,18,39,4.50
2008,03,24,18,40,4.40
2008,03,24,18,41,4.40
2008,03,24,18,42,4.30
2008,03,24,18,43,4.30
2008,03,24,18,44,4.20
2008,03,24,18,45,4.20
2008,03,24,18,46,4.20
2008,03,24,18,47,4.20
2008,03,24,18,48,4.10
2008,03,24,18,49,4.10
2008,03,24,18,50,4.00
2008,03,24,18,51,4.00
2008,03,24,18,52,3.90
2008,03,24,18,53,3.90
2008,03,24,18,54,3.90
2008,03,24,18,55,3.80
2008,03,24,18,56,3.80
2008,03,24,18,57,3.80
2008,03,24,18,58,3.70
2008,03,24,18,59,3.70
2008,03,24,19,00,3.60
2008,03,24,19,01,3.60
2008,03,24,19,02,3.50
2008,03,24,19,03,3.50
2008,03,24,19,04,3.40
2008,03,24,19,05,3.40
2008,03,24,19,06,3.40
2008,03,24,19,07,3.30
2008,03,24,19,08,3.30
2008,03,24,19,09,3.30
2008,03,24,19,10,3.30
2008,03,24,19,11,3.20
2008,03,24,19,12,3.20
2008,03,24,19,13,3.10
2008,03,24,19,14,3.10
2008,03,24,19,15,3.10
2008,03,24,19,16,3.10
2008,03,24,19,17,3.10
2008,03,24,19,18,3.10
2008,03,24,19,19,2.90
2008,03,24,19,20,2.90
2008,03,24,19,21,2.90
2008,03,24,19,22,2.90
2008,03,24,19,23,2.90
2008,03,24,19,24,2.90
2008,03,24,19,25,2.90
2008,03,24,19,26,2.90
2008,03,24,19,27,2.90
2008,03,24,19,28,2.90
2008,03,24,19,29,2.90
2008,03,24,19,30,2.80
2008,03,24,19,31,2.80
2008,03,24,19,32,2.80
2008,03,24,19,33,2.70
2008,03,24,19,34,2.70
2008,03,24,19,35,2.70
2008,03,24,19,36,2.70
2008,03,24,19,37,2.60
2008,03,24,19,38,2.60
2008,03,24,19,39,2.60
2008,03,24,19,40,2.50
2008,03,24,19,41,2.50
2008,03,24,19,42,2.50
2008,03,24,19,43,2.40
2008,03,24,19,44,2.40
2008,03,24,19,45,2.40
2008,03,24,19,46,2.30
2008,03,24,19,47,2.30
2008,03,24,19,48,2.20
2008,03,24,19,49,2.20
2008,03,24,19,50,2.20
2008,03,24,19,51,2.20
2008,03,24,19,52,2.10
2008,03,24,19,53,2.10
2008,03,24,19,54,2.00
2008,03,24,19,55,2.00
2008,03,24,19,56,2.00
2008,03,24,19,57,1.90
2008,03,24,19,58,1.90
2008,03,24,19,59,1.80
2008,03,24,20,00,1.80
2008,03,24,20,01,1.80
2008,03,24,20,02,1.80
2008,03,24,20,03,1.70
2008,03,24,20,04,1.70
2008,03,24,20,05,1.60
2008,03,24,20,06,1.60
2008,03,24,20,07,1.60
2008,03,24,20,08,1.50
2008,03,24,20,09,1.50
2008,03,24,20,10,1.50
2008,03,24,20,11,1.40
2008,03,24,20,12,1.40
2008,03,24,20,13,1.40
2008,03,24,20,14,1.30
2008,03,24,20,15,1.30
2008,03,24,20,16,1.30
2008,03,24,20,17,1.30
2008,03,24,20,18,1.30
2008,03,24,20,19,1.30
2008,03,24,20,20,1.30
2008,03,24,20,21,1.30
2008,03,24,20,22,1.30
2008,03,24,20,23,1.30
2008,03,24,20,24,1.30
2008,03,24,20,25,1.30
2008,03,24,20,26,1.30
2008,03,24,20,27,1.30
2008,03,24,20,28,1.30
2008,03,24,20,29,1.30
2008,03,24,20,30,1.30
2008,03,24,20,31,1.20
2008,03,24,20,32,1.20
2008,03,24,20,33,1.20
2008,03,24,20,34,1.20
2008,03,24,20,35,1.20
2008,03,24,20,36,1.20
2008,03,24,20,37,1.20
2008,03,24,20,38,1.20
2008,03,24,20,39,1.20
2008,03,24,20,40,1.10
2008,03,24,20,41,1.10
2008,03,24,20,42,1.10
2008,03,24,20,43,1.10
2008,03,24,20,44,1.10
2008,03,24,20,45,1.10
2008,03,24,20,46,1.10
2008,03,24,20,47,1.10
2008,03,24,20,48,1.10
2008,03,24,20,49,1.10
2008,03,24,20,50,1.10
2008,03,24,20,51,1.10
2008,03,24,20,52,1.10
2008,03,24,20,53,1.10
2008,03,24,20,54,1.10
2008,03,24,20,55,1.10
2008,03,24,20,56,1.10
2008,03,24,20,57,1.10
2008,03,24,20,58,1.10
2008,03,24,20,59,1.10
2008,03,24,21,00,1.10
2008,03,24,21,01,1.10
2008,03,24,21,02,1.10
2008,03,24,21,03,1.10
2008,03,24,21,04,1.10
2008,03,24,21,05,1.00
2008,03,24,21,06,1.00
2008,03,24,21,07,1.00
2008,03,24,21,08,1.00
2008,03,24,21,09,1.00
2008,03,24,21,10,0.90
2008,03,24,21,11,0.90
2008,03,24,21,12,0.90
2008,03,24,21,13,0.90
2008,03,24,21,14,0.90
2008,03,24,21,15,0.90
2008,03,24,21,16,0.90
2008,03,24,21,17,0.90
2008,03,24,21,18,0.90
2008,03,24,21,19,0.90
2008,03,24,21,20,0.90
2008,03,24,21,21,0.80
2008,03,24,21,22,0.80
2008,03,24,21,23,0.80
2008,03,24,21,24,0.80
2008,03,24,21,25,0.80
2008,03,24,21,26,0.80
2008,03,24,21,27,0.80
2008,03,24,21,28,0.80
2008,03,24,21,29,0.80
2008,03,24,21,30,0.80
2008,03,24,21,31,0.80
2008,03,24,21,32,0.80
2008,03,24,21,33,0.80
2008,03,24,21,34,0.70
2008,03,24,21,35,0.70
2008,03,24,21,36,0.70
2008,03,24,21,37,0.70
2008,03,24,21,38,0.70
2008,03,24,21,39,0.60
2008,03,24,21,40,0.60
2008,03,24,21,41,0.60
2008,03,24,21,42,0.60
2008,03,24,21,43,0.60
2008,03,24,21,44,0.60
2008,03,24,21,45,0.60
2008,03,24,21,46,0.50
2008,03,24,21,47,0.50
2008,03,24,21,48,0.50
2008,03,24,21,49,0.50
2008,03,24,21,50,0.50
2008,03,24,21,51,0.50
2008,03,24,21,52,0.40
2008,03,24,21,53,0.40
2008,03,24,21,54,0.40
2008,03,24,21,55,0.40
2008,03,24,21,56,0.40
2008,03,24,21,57,0.40
2008,03,24,21,58,0.40
2008,03,24,21,59,0.40
2008,03,24,22,00,0.40
2008,03,24,22,01,0.40
2008,03,24,22,02,0.40
2008,03,24,22,03,0.30
2008,03,24,22,04,0.30
2008,03,24,22,05,0.30
2008,03,24,22,06,0.30
2008,03,24,22,07,0.30
2008,03,24,22,08,0.30
2008,03,24,22,09,0.30
2008,03,24,22,10,0.30
2008,03,24,22,11,0.20
2008,03,24,22,12,0.20
2008,03,24,22,13,0.20
2008,03,24,22,14,0.20
2008,03,24,22,15,0.20
2008,03,24,22,16,0.20
2008,03,24,22,17,0.20
2008,03,24,22,18,0.20
2008,03,24,22,19,0.20
2008,03,24,22,20,0.10
2008,03,24,22,21,0.10
2008,03,24,22,22,0.10
2008,03,24,22,23,0.10
2008,03,24,22,24,0.10
2008,03,24,22,25,0.10
2008,03,24,22,26,0.10
2008,03,24,22,27,0.10
2008,03,24,22,28,0.10
2008,03,24,22,29,0.00
2008,03,24,22,30,-0.10
2008,03,24,22,31,-0.10
2008,03,24,22,32,-0.10
2008,03,24,22,33,-0.10
2008,03,24,22,34,-0.10
2008,03,24,22,35,-0.10
2008,03,24,22,36,-0.10
2008,03,24,22,37,-0.10
2008,03,24,22,38,-0.10
2008,03,24,22,39,-0.20
2008,03,24,22,40,-0.20
2008,03,24,22,41,-0.20
2008,03,24,22,42,-0.20
2008,03,24,22,43,-0.20
2008,03,24,22,44,-0.20
2008,03,24,22,45,-0.20
2008,03,24,22,46,-0.30
2008,03,24,22,47,-0.30
2008,03,24,22,48,-0.30
2008,03,24,22,49,-0.30
2008,03,24,22,50,-0.30
2008,03,24,22,51,-0.30
2008,03,24,22,52,-0.40
2008,03,24,22,53,-0.40
2008,03,24,22,54,-0.40
2008,03,24,22,55,-0.40
2008,03,24,22,56,-0.40
2008,03,24,22,57,-0.40
2008,03,24,22,58,-0.40
2008,03,24,22,59,-0.40
2008,03,24,23,00,-0.40
2008,03,24,23,01,-0.40
2008,03,24,23,02,-0.40
2008,03,24,23,03,-0.40
2008,03,24,23,04,-0.40
2008,03,24,23,05,-0.40
2008,03,24,23,06,-0.40
2008,03,24,23,07,-0.40
2008,03,24,23,08,-0.40
2008,03,24,23,09,-0.60
2008,03,24,23,10,-0.60
2008,03,24,23,11,-0.60
2008,03,24,23,12,-0.60
2008,03,24,23,13,-0.60
2008,03,24,23,14,-0.60
2008,03,24,23,15,-0.60
2008,03,24,23,16,-0.60
2008,03,24,23,17,-0.60
2008,03,24,23,18,-0.60
2008,03,24,23,19,-0.60
2008,03,24,23,20,-0.60
2008,03,24,23,21,-0.60
2008,03,24,23,22,-0.60
2008,03,24,23,23,-0.60
2008,03,24,23,24,-0.60
2008,03,24,23,25,-0.60
2008,03,24,23,26,-0.60
2008,03,24,23,27,-0.60
2008,03,24,23,28,-0.60
2008,03,24,23,29,-0.60
2008,03,24,23,30,-0.60
2008,03,24,23,31,-0.60
2008,03,24,23,32,-0.60
2008,03,24,23,33,-0.60
2008,03,24,23,34,-0.60
2008,03,24,23,35,-0.60
2008,03,24,23,36,-0.60
2008,03,24,23,37,-0.60
2008,03,24,23,38,-0.60
2008,03,24,23,39,-0.60
2008,03,24,23,40,-0.60
2008,03,24,23,41,-0.60
2008,03,24,23,42,-0.60
2008,03,24,23,43,-0.60
2008,03,24,23,44,-0.60
2008,03,24,23,45,-0.60
2008,03,24,23,46,-0.60
2008,03,24,23,47,-0.60
2008,03,24,23,48,-0.60
2008,03,24,23,49,-0.60
2008,03,24,23,50,-0.60
2008,03,24,23,51,-0.60
2008,03,24,23,52,-0.60
2008,03,24,23,53,-0.60
2008,03,24,23,54,-0.60
2008,03,24,23,55,-0.60
2008,03,24,23,56,-0.60
2008,03,24,23,57,-0.60
2008,03,24,23,58,-0.60
2008,03,24,23,59,-0.60
